TimeEST,TemperatureF,Dew PointF,Humidity,Sea Level PressureIn,VisibilityMPH,Wind Direction,Wind SpeedMPH,Gust SpeedMPH,PrecipitationIn,Events,Conditions,WindDirDegrees,DateUTC
12:53 AM,32.0,21.0,64,30.10,10.0,NNW,12.7,-,0.00,,Overcast,330,2013-03-03 05:53:00
1:53 AM,32.0,23.0,69,30.10,10.0,NW,10.4,-,N/A,,Overcast,320,2013-03-03 06:53:00
2:53 AM,32.0,21.9,66,30.09,10.0,NW,9.2,-,N/A,,Overcast,320,2013-03-03 07:53:00
3:53 AM,32.0,21.9,66,30.08,10.0,NNW,10.4,-,N/A,,Overcast,330,2013-03-03 08:53:00
4:53 AM,30.9,21.9,69,30.09,10.0,NW,12.7,17.3,N/A,,Overcast,320,2013-03-03 09:53:00
5:53 AM,30.9,21.0,67,30.09,7.0,NW,10.4,-,0.00,Snow,Light Snow,310,2013-03-03 10:53:00
6:53 AM,30.9,21.0,67,30.09,7.0,NNW,12.7,-,0.00,,Overcast,340,2013-03-03 11:53:00
7:53 AM,30.9,19.9,64,30.11,10.0,NNW,13.8,-,N/A,,Overcast,340,2013-03-03 12:53:00
8:53 AM,32.0,16.0,52,30.13,10.0,NNW,20.7,-,N/A,,Mostly Cloudy,340,2013-03-03 13:53:00
9:53 AM,33.1,17.1,52,30.13,10.0,North,11.5,-,N/A,,Mostly Cloudy,360,2013-03-03 14:53:00
10:53 AM,33.1,19.9,59,30.13,10.0,WNW,8.1,-,N/A,,Mostly Cloudy,300,2013-03-03 15:53:00
11:53 AM,34.0,21.9,61,30.14,10.0,North,11.5,-,N/A,,Mostly Cloudy,10,2013-03-03 16:53:00
12:53 PM,34.0,21.0,59,30.13,10.0,NW,10.4,-,0.00,,Overcast,320,2013-03-03 17:53:00
1:53 PM,36.0,21.0,55,30.12,10.0,Variable,6.9,-,N/A,,Mostly Cloudy,0,2013-03-03 18:53:00
2:53 PM,39.9,19.0,43,30.10,10.0,NW,8.1,-,N/A,,Mostly Cloudy,320,2013-03-03 19:53:00
3:53 PM,41.0,17.1,38,30.09,10.0,WNW,10.4,17.3,N/A,,Scattered Clouds,290,2013-03-03 20:53:00
4:53 PM,41.0,17.1,38,30.09,10.0,NNW,5.8,-,N/A,,Partly Cloudy,340,2013-03-03 21:53:00
5:53 PM,39.9,17.1,40,30.09,10.0,NNW,9.2,-,N/A,,Partly Cloudy,340,2013-03-03 22:53:00
6:53 PM,37.0,18.0,46,30.10,10.0,NNW,6.9,-,N/A,,Partly Cloudy,340,2013-03-03 23:53:00
7:53 PM,35.1,19.9,54,30.11,10.0,Calm,Calm,-,N/A,,Clear,0,2013-03-04 00:53:00
8:53 PM,33.1,21.0,61,30.12,10.0,Calm,Calm,-,N/A,,Clear,0,2013-03-04 01:53:00
9:53 PM,30.9,21.0,67,30.12,10.0,Calm,Calm,-,N/A,,Clear,0,2013-03-04 02:53:00
10:53 PM,30.0,23.0,75,30.12,10.0,Calm,Calm,-,N/A,,Clear,0,2013-03-04 03:53:00
11:53 PM,28.0,23.0,81,30.14,10.0,Calm,Calm,-,N/A,,Clear,0,2013-03-04 04:53:00